Regional Weather Roundup
Issued by NWS

Home | Current Version | Previous Version | Graphics & Text | Print | Product List | Glossary On
Versions: 1 2 3 4 5 6 7 8 9 10 11 12 13 14 15 16 17 18 19 20 21 22 23 24 25 26 27 28 29 30 31 32 33 34 35 36 37 38 39 40 41 42 43 44 45 46 47 48 49 50
000
ASUS43 KLSX 290507
RWRMO

WEATHER SUMMARY FOR MISSOURI
NATIONAL WEATHER SERVICE SPRINGFIELD MO
1100 PM CST SUN DEC 28 2014

NOTE: "FAIR" INDICATES FEW OR NO CLOUDS BELOW 12,000 FEET WITH NO
       SIGNIFICANT WEATHER AND/OR OBSTRUCTIONS TO VISIBILITY.
       CURRENT SKY AND/OR WEATHER CONDITIONS ARE NOT AVAILABLE FOR
       CHILLICOTHE AND FARMINGTON.

MOZ001>031-035>038-043-044-053-054-290600-
...NORTHERN AND WESTERN MISSOURI...

CITY           SKY/WX    TMP DP  RH WIND       PRES   REMARKS
KANSAS CTY INT CLOUDY    29  22  75 S6        30.19R WCI  23
KANSAS C DTWN  CLOUDY    33  21  61 SW5       30.20R WCI  29
LEE`S SUMMIT   PTCLDY    30  20  66 S5        30.19R WCI  25
ST JOSEPH      CLOUDY    29  24  82 CALM      30.20R
CHILLICOTHE      N/A     27  23  85 CALM      30.23R
KIRKSVILLE     PTCLDY    24  20  84 CALM      30.21R

$$
MOZ066>068-077>081-088>096-101>105-290600-
...SOUTHWEST MISSOURI...

CITY           SKY/WX    TMP DP  RH WIND       PRES   REMARKS
SPRINGFIELD    CLEAR     25  20  81 SE3       30.16S
JOPLIN         CLEAR     26  22  84 E3        30.18R

$$
MOZ032>034-039>042-045>050-055>058-069>072-290600-
...CENTRAL MISSOURI...

CITY           SKY/WX    TMP DP  RH WIND       PRES   REMARKS
COLUMBIA       CLEAR     30  21  69 E3        30.21R
JEFFERSON CITY CLEAR     24  21  88 CALM      30.23S
ROLLA          CLEAR     27  22  81 E8        30.18S WCI  19
SEDALIA        CLEAR     29  18  63 SE5       30.21R WCI  24
WHITEMAN AFB   CLEAR     30  19  64 CALM      30.17S
WARRENSBURG    CLEAR     27  23  86 CALM      30.21R
OSAGE BEACH    CLEAR     23  19  86 CALM      30.20S

$$
MOZ051-052-059>065-290600-
...EAST CENTRAL MISSOURI...

CITY           SKY/WX    TMP DP  RH WIND       PRES   REMARKS
ST LOUIS INTL  CLEAR     28  23  81 E5        30.24R WCI  23
SPIRIT OF STL  CLEAR     24  21  88 CALM      30.23S
ST CHARLES     CLEAR     27  25  92 NE3       30.25R

$$
MOZ072>076-082>087-097>100-106>115-290600-
...SOUTH CENTRAL AND SOUTHEAST MISSOURI...

CITY           SKY/WX    TMP DP  RH WIND       PRES   REMARKS
CAPE GIRARDEAU CLOUDY    33  27  78 N9        30.23R WCI  25
POPLAR BLUFF   CLOUDY    33  26  75 NE8       30.21S WCI  26
WEST PLAINS    CLEAR     22  18  85 CALM      30.17F

$$


USA.gov is the U.S. government's official web portal to all federal, state and local government web resources and services.